Flag for Canada Weather past 2 weeks in Trois-Rivieres, Quebec, Canada

Now
40 °F

Quite cool.


Feels Like: 40 °F
Forecast: 41 / 67 °F
Wind: 2 mph from Northeast

Location: Trois Rivieres


UV Index: 3 (Moderate)

Visibility: N/A


Pressure: 30.08 "Hg

Humidity: 55%

Dew point: 25 °F

Location of Trois-RivieresLocation

Historic Weather in Trois-Rivieres

°F

Trois-Rivieres temperature yesterday

Maximum temperature yesterday: 44 °F (at 6:00 PM)
Minimum temperature yesterday: 30 °F (at 4:00 AM)
Average temperature yesterday: 38 °F

Past Weeks' High & Low Weather Summary

 TemperatureHumidityPressure
High56 °F (Apr 15, 12:00 PM)100% (Apr 15, 9:00 AM)30.82 "Hg (Apr 15, 9:00 AM)
Low17 °F (Apr 16, 8:00 AM)25% (Apr 19, 7:00 PM)29.21 "Hg (Apr 8, 4:00 PM)
Average38 °F69%30.03 "Hg
* Reported Apr 6 2:00 AM — Apr 21 2:00 AM, Trois-Rivieres, Weather by CustomWeather, © 2014

Note: Actual official high and low records may vary slightly from our data, if they occured in-between our weather recording intervals... More about our weather records

Advertising

Historic Weather Conditions — Data for Previous 24 hours

 ConditionsComfort  
Time TempWeatherWind HumidityBarometerVisibility
2:00 AM
Apr 21
40 °FChilly.5 mph57%30.11 "HgN/A
1:00 AM42 °FQuite cool.3 mph49%30.15 "HgN/A
12:00 AM43 °FQuite cool.3 mph49%30.18 "HgN/A
11:00 PM
Apr 20
43 °FQuite cool.5 mph52%30.20 "HgN/A
10:00 PM44 °FQuite cool.5 mph51%30.23 "HgN/A
9:00 PM44 °FQuite cool.5 mph50%30.25 "HgN/A
8:00 PM44 °FQuite cool.3 mph48%30.27 "HgN/A
7:00 PM44 °FQuite cool.3 mph49%30.29 "HgN/A
6:00 PM44 °FQuite cool.1 mph49%30.32 "HgN/A
5:00 PM42 °FQuite cool.6 mph61%30.34 "HgN/A
4:00 PM42 °FQuite cool.8 mph57%30.37 "HgN/A
3:00 PM41 °FQuite cool.9 mph60%30.38 "HgN/A
2:00 PM43 °FQuite cool.8 mph39%30.42 "HgN/A
1:00 PM40 °FChilly.7 mph59%30.43 "HgN/A
12:00 PM39 °FChilly.8 mph58%30.46 "HgN/A
11:00 AM38 °FChilly.3 mph52%30.49 "HgN/A
10:00 AM36 °FChilly.3 mph56%30.50 "HgN/A
9:00 AM34 °FChilly.7 mph56%30.52 "HgN/A
8:00 AM33 °FChilly.6 mph56%30.54 "HgN/A
7:00 AM33 °FChilly.3 mph48%30.54 "HgN/A
6:00 AM33 °FChilly.3 mph47%30.53 "HgN/A
5:00 AM31 °FChilly.1 mph59%30.52 "HgN/A
4:00 AM30 °FChilly.5 mph63%30.50 "HgN/A
3:00 AM31 °FChilly.7 mph69%30.50 "HgN/A
Weather by CustomWeather, © 2014

See weather overview